Location: Limerick
(52.6650°N, 8.6230°W)
Time: 19:49:43
(UTC+00:00)

Tiangong 2 - Visible Passes

Search period start: 18 January 2018 00:00
Search period end: 28 January 2018 00:00
Orbit: 384 x 390 km, 42.8° (Epoch: 18 January)

Date Brightness Start Highest point End Pass type
(mag) Time Alt. Az. Time Alt. Az. Time Alt. Az.
19 Jan 4.0 07:47:50 10° SSW 07:49:26 13° S 07:51:03 10° SE visible
20 Jan 4.0 06:49:57 10° S 06:51:00 11° SSE 06:52:03 10° SE visible
21 Jan 3.8 07:26:43 10° SSW 07:28:33 14° S 07:30:22 10° SE visible
22 Jan 3.7 06:28:44 11° SSW 06:30:04 13° S 06:31:42 10° SE visible
23 Jan 3.7 07:05:47 10° SW 07:07:36 14° S 07:09:25 10° SSE visible
24 Jan 3.6 06:09:05 14° S 06:09:07 14° S 06:10:57 10° SE visible
24 Jan 3.8 07:44:07 10° SSW 07:45:06 11° SSW 07:46:06 10° S visible
25 Jan 3.6 06:45:20 11° SW 06:46:38 13° S 06:48:13 10° SSE visible
26 Jan 3.9 05:49:18 12° SSE 05:49:18 12° SSE 05:49:56 10° SSE visible
27 Jan 3.7 06:25:32 11° SSW 06:25:36 11° SSW 06:26:31 10° S visible
